Location: Chicago
(41.8500°N, 87.6500°W)
Time: 06:59:21
(UTC-06:00)

ISS - Visible Passes

Search period start: 23 November 2017 00:00
Search period end: 03 December 2017 00:00
Orbit: 402 x 407 km, 51.6° (Epoch: 23 November)

Date Brightness Start Highest point End Pass type
(mag) Time Alt. Az. Time Alt. Az. Time Alt. Az.
25 Nov -1.5 18:24:34 10° SSW 18:25:41 18° S 18:25:41 18° S visible
26 Nov -1.9 17:33:13 10° S 17:35:21 16° SE 17:35:51 16° ESE visible
26 Nov -0.4 19:08:16 10° WSW 19:08:32 12° WSW 19:08:32 12° WSW visible
27 Nov -3.3 18:15:55 10° SW 18:18:36 56° SSW 18:18:36 56° SSW visible
28 Nov -3.1 17:23:51 10° SSW 17:26:55 38° SE 17:28:36 21° E visible
28 Nov -0.7 19:00:27 10° W 19:01:16 15° W 19:01:16 15° W visible
29 Nov -3.3 18:07:47 10° WSW 18:10:57 49° NNW 18:11:10 48° NNW visible
30 Nov -3.9 17:15:17 10° SW 17:18:33 88° NW 17:21:00 17° NE visible
30 Nov -0.8 18:52:51 10° WNW 18:53:39 14° WNW 18:53:39 14° WNW visible
01 Dec -2.4 17:59:57 10° W 18:02:49 27° NNW 18:03:25 26° N visible
02 Dec -2.9 17:07:10 10° W 17:10:18 41° NNW 17:13:09 12° NE visible
02 Dec -0.8 18:45:16 10° NW 18:45:47 12° NW 18:45:47 12° NW visible
